Torna al catalogo

STARLINK-3845

AttivoComunicazioniVLEO
NORAD 52541·PAYLOAD·🇺🇸 United States

Lanciato May 13, 2022 da Vandenberg Space Force Base

Loading…

Prossimi Passaggi (prossime 24 ore)

TLE

AggiornatoSource: CelesTrak SupGP

Epoca: Sep 14, 2026, 22:00 UTC

1 52541C 22051J   26257.91715278 -.00031988  00000+0 -91524-3 0  2570
2 52541  53.1585 352.1922 0001278  82.5861 321.6364 15.35412942    10

Traccia STARLINK-3845 in tempo reale con AllMySat

Download on the App Store